(451) Patientia
ephemeris date magn radius delta ra dec elong phase
Today13 Jun 202611.83.229 AU2.313 AU19h37m-26°45'149.5°9.2°
Opposition9 Jul 202611.33.218 AU2.206 AU19h17m-29°18'173.0°2.2°
(451) Patientia - 2026-06-13
astro.vanbuitenen.nl


 
-1 year
-1 month
-1 day
Now
+1 day
+1 month
+1 year

The interactive orbit chart above shows the body's path through the solar system and its position at the given date. Green and blue lines are shown perpendicular to the ecliptic plane: Green if the path is above the ecliptic plane, blue if it is below. (Left-click and drag to rotate the view; Right-click and drag to move the view; Use scroll wheel to zoom in our out.)

The orbital elements of Patientia are:

            e (Eccentricity)                : 0.0694689
            a (Semimajor axis)              : 3.0645494
            i (Inclination)                 : 15.20537
            Ω (Longitude of ascending node) : 88.99604
            ω (Argument of perihelion)      : 337.23129
            M (Mean anomaly)                : 221.20082
            Epoch                           : 2026 Jun 09

            L (Longitude of perihelion)     : 66.94685
            B (Latitude of perihelion)      : -5.82586
            P (Orbital period in years)     : 5.36            
        

The light curve chart below shows the estimated development of the minor planet's magnitude.


The all-sky chart below shows the path of the minor planet over the same period as the light curve. The current position is marked yellow.





The following chart shows the path of the minor planet in the next few days. The field of view is optimized for (~10x50) binoculars and finderscopes.




Ephemerides:
Date       Time       RA (2000)    DEC (2000)    delta   radius  elong  phase   PA    magn
2026-06-13 00:00 UT   19 37 52.3   -26 45 09     2.313    3.229  149.5    9.2   269   11.8 
2026-06-13 06:37 UT   19 37 43.0   -26 46 45     2.311    3.229  149.8    9.1   269   11.8 
2026-06-14 00:00 UT   19 37 18.1   -26 50 58     2.306    3.229  150.5    8.9   270   11.7 
2026-06-15 00:00 UT   19 36 42.6   -26 56 50     2.298    3.228  151.6    8.6   270   11.7 
2026-06-16 00:00 UT   19 36 06.0   -27 02 43     2.292    3.228  152.7    8.3   271   11.7 
2026-06-17 00:00 UT   19 35 28.3   -27 08 38     2.285    3.227  153.7    8.0   272   11.7 
2026-06-18 00:00 UT   19 34 49.4   -27 14 33     2.278    3.227  154.8    7.7   273   11.7 
2026-06-19 00:00 UT   19 34 09.5   -27 20 29     2.272    3.227  155.9    7.4   273   11.6 
2026-06-20 00:00 UT   19 33 28.5   -27 26 26     2.266    3.226  157.0    7.1   274   11.6 
2026-06-21 00:00 UT   19 32 46.4   -27 32 23     2.261    3.226  158.0    6.8   275   11.6 
2026-06-22 00:00 UT   19 32 03.4   -27 38 19     2.256    3.225  159.1    6.5   276   11.6 
2026-06-23 00:00 UT   19 31 19.5   -27 44 16     2.250    3.225  160.2    6.1   278   11.6 
2026-06-24 00:00 UT   19 30 34.6   -27 50 12     2.246    3.224  161.2    5.8   279   11.5 
2026-06-25 00:00 UT   19 29 48.9   -27 56 08     2.241    3.224  162.3    5.5   281   11.5 
2026-06-26 00:00 UT   19 29 02.3   -28 02 02     2.237    3.224  163.3    5.2   282   11.5 
2026-06-27 00:00 UT   19 28 15.0   -28 07 55     2.233    3.223  164.3    4.9   284   11.5 
2026-06-28 00:00 UT   19 27 26.8   -28 13 47     2.229    3.223  165.3    4.6   286   11.5 
2026-06-29 00:00 UT   19 26 38.0   -28 19 37     2.226    3.222  166.3    4.3   289   11.4 
2026-06-30 00:00 UT   19 25 48.5   -28 25 25     2.222    3.222  167.3    4.0   291   11.4 
2026-07-01 00:00 UT   19 24 58.4   -28 31 10     2.219    3.221  168.2    3.7   295   11.4 
2026-07-02 00:00 UT   19 24 07.7   -28 36 53     2.217    3.221  169.1    3.4   298   11.4 
2026-07-03 00:00 UT   19 23 16.4   -28 42 34     2.214    3.220  170.0    3.1   303   11.4 
2026-07-04 00:00 UT   19 22 24.7   -28 48 11     2.212    3.220  170.8    2.9   308   11.3 
2026-07-05 00:00 UT   19 21 32.6   -28 53 46     2.211    3.220  171.5    2.7   314   11.3 
2026-07-06 00:00 UT   19 20 40.0   -28 59 16     2.209    3.219  172.1    2.5   321   11.3 
2026-07-07 00:00 UT   19 19 47.1   -29 04 44     2.208    3.219  172.6    2.3   329   11.3 
2026-07-08 00:00 UT   19 18 53.9   -29 10 07     2.207    3.218  172.9    2.2   338   11.3 
2026-07-09 00:00 UT   19 18 00.5   -29 15 27     2.206    3.218  173.0    2.2   347   11.3 
2026-07-10 00:00 UT   19 17 06.9   -29 20 42     2.206    3.217  172.9    2.2   357   11.3 
2026-07-11 00:00 UT   19 16 13.2   -29 25 53     2.206    3.217  172.7    2.3     6   11.3 
2026-07-12 00:00 UT   19 15 19.4   -29 30 59     2.206    3.216  172.3    2.4    15   11.3 
2026-07-13 00:00 UT   19 14 25.6   -29 36 00     2.207    3.216  171.7    2.6    22   11.3 


    Terminology:
            
    delta:  distance between minor planet and earth in AU
    radius: distance between minor planet and sun in AU
    magn:   magnitude (brightness) estimate    
    ra:     right ascension in hours (24h = 360deg)
    dec:    declination in degrees
    elong:  elongation in degrees (angle sun-earth-minor planet)    
    phase:  phase angle in degrees (angle sun-minor planet-earth)        
    AU:     Astronomical Unit (mean distance between earth and sun: 149597870.7 km
    

Orbital elements provided by the MPC (Minor Planet Center).
Calculations by a modified version of AAPlus, a C# implementation of the AA+ project by PJ Naughter from the algorithms presented in the book "Astronomical Algorithms" by Jean Meeus.
NGC2000 dso catalog and star labels from VizieR as provided by the Strasbourg astronomical Data Center.
Tycho2 catalog from the ESO archive.